Overview Statistics Trail Chart Weather Telemetry Raw packets
 

This is the latest recevied weather packets stored in our database for station/object KB4RFE. If no packets are shown the sender has not sent any weather packets the latest 10 day(s).

<< 1 2 3 4 >>
Time Temp. Humidity Pressure Rain* Wind** Luminosity Snow
1788638408 31.11° C 79% 1013 hPa 0 mm - 595 W/m² -
1788638103 31.11° C 78% 1013.2 hPa 0 mm - 600 W/m² -
1788637798 31.67° C 78% 1013.3 hPa 0 mm - 608 W/m² -
1788637498 31.67° C 79% 1013.4 hPa 0 mm - 613 W/m² -
1788637198 31.67° C 77% 1013.4 hPa 0 mm - 618 W/m² -
1788636898 31.67° C 79% 1013.3 hPa 0 mm - 628 W/m² -
1788636593 31.67° C 78% 1013.2 hPa 0 mm - 637 W/m² -
1788636288 31.67° C 78% 1013.5 hPa 0 mm - 657 W/m² -
1788635984 31.67° C 77% 1013.6 hPa 0 mm - 669 W/m² -
1788635684 31.67° C 78% 1013.7 hPa 0 mm - 684 W/m² -
1788635383 31.67° C 78% 1013.8 hPa 0 mm - 696 W/m² -
1788635081 31.67° C 79% 1014 hPa 0 mm - 705 W/m² -
1788634780 31.67° C 76% 1014.1 hPa 0 mm - 718 W/m² -
1788634475 31.67° C 77% 1014.2 hPa 0 mm - 733 W/m² -
1788634174 31.67° C 76% 1014.3 hPa 0 mm - 743 W/m² -
1788633869 31.67° C 77% 1014.3 hPa 0 mm - 754 W/m² -
1788633567 31.67° C 76% 1014.4 hPa 0 mm - 766 W/m² -
1788633262 31.67° C 76% 1014.4 hPa 0 mm - 786 W/m² -
1788632957 31.67° C 77% 1014.5 hPa 0 mm - 795 W/m² -
1788632656 31.67° C 78% 1014.5 hPa 0 mm - 832 W/m² -
1788632352 31.67° C 76% 1014.7 hPa 0 mm - 839 W/m² -
1788632052 31.67° C 78% 1014.5 hPa 0 mm - 847 W/m² -
1788631751 31.67° C 77% 1014.8 hPa 0 mm - 878 W/m² -
1788631449 31.67° C 77% 1014.6 hPa 0 mm - 847 W/m² -
1788631141 31.67° C 79% 1014.6 hPa 0 mm - 887 W/m² -

* Rain latest hour (hover to see other rain measurements)
** Current wind speed in m/s (hover to see current wind gust speed)